EWG3088 LGKR-LDPL

Flight info

Callsign EWG3088
Flight time 1h 6m
Altitude 36000
Route OLGAT DCT AIOSA DCT SAL DCT LOS
Aircraft A320/M-SDE3FGHIRWY/LB1

Departure

Time 2026-05-06 10:32
Airport Corfu Ioannis Kapodistrias International Airport (LGKR)

Arrival

Time 2026-05-06 11:38
Airport Pula Airport (LDPL)
Time Latitude Longitude Altitude Speed Heading
2026-05-06 10:23 39.60837 19.91319 8 ft 0 kts 78°
2026-05-06 10:27 39.60835 19.91308 8 ft 4 kts 79°
2026-05-06 10:27 39.60829 19.91273 10 ft 4 kts 75°
2026-05-06 10:28 39.60820 19.91246 8 ft 4 kts 24°
2026-05-06 10:28 39.60811 19.91244 11 ft 1 kts 348°
2026-05-06 10:28 39.60809 19.91244 10 ft 0 kts 348°
2026-05-06 10:30 39.60825 19.91240 8 ft 8 kts 348°
2026-05-06 10:30 39.60892 19.91187 8 ft 15 kts 316°
2026-05-06 10:30 39.61004 19.91130 10 ft 20 kts 347°
2026-05-06 10:30 39.61147 19.91096 9 ft 19 kts 349°
2026-05-06 10:31 39.61204 19.91029 11 ft 9 kts 288°
2026-05-06 10:31 39.61175 19.90965 10 ft 11 kts 189°
2026-05-06 10:31 39.60948 19.91021 8 ft 71 kts 168°
2026-05-06 10:31 39.60190 19.91226 12 ft 146 kts 169°
2026-05-06 10:32 39.59060 19.91489 422 ft 172 kts 167°
2026-05-06 10:32 39.57974 19.92090 1289 ft 176 kts 136°
2026-05-06 10:32 39.57458 19.93543 2095 ft 192 kts 96°
2026-05-06 10:32 39.57811 19.95322 2703 ft 215 kts 54°
2026-05-06 10:33 39.58997 19.96466 3343 ft 223 kts 13°
2026-05-06 10:33 39.60545 19.96339 3797 ft 234 kts 333°
2026-05-06 10:33 39.61830 19.94945 4114 ft 256 kts 306°
2026-05-06 10:33 39.62924 19.93038 4765 ft 267 kts 304°
2026-05-06 10:34 39.64022 19.91076 5633 ft 270 kts 304°
2026-05-06 10:34 39.65125 19.89091 6533 ft 272 kts 304°
2026-05-06 10:34 39.66234 19.87096 7363 ft 274 kts 304°
2026-05-06 10:34 39.67356 19.85080 8196 ft 276 kts 304°
2026-05-06 10:35 39.68485 19.83059 9040 ft 277 kts 304°
2026-05-06 10:35 39.69623 19.81023 9870 ft 280 kts 304°
2026-05-06 10:35 39.70775 19.78963 10523 ft 289 kts 304°
2026-05-06 10:35 39.72002 19.76765 10720 ft 312 kts 304°
2026-05-06 10:36 39.73297 19.74444 11185 ft 322 kts 304°
2026-05-06 10:36 39.74621 19.72074 11847 ft 326 kts 304°
2026-05-06 10:36 39.75955 19.69683 12514 ft 328 kts 304°
2026-05-06 10:36 39.77304 19.67267 13197 ft 331 kts 304°
2026-05-06 10:37 39.78663 19.64832 13886 ft 334 kts 304°
2026-05-06 10:37 39.80035 19.62375 14482 ft 337 kts 305°
2026-05-06 10:37 39.81414 19.59896 15060 ft 340 kts 304°
2026-05-06 10:37 39.82802 19.57389 15627 ft 343 kts 304°
2026-05-06 10:38 39.84204 19.54855 16191 ft 346 kts 305°
2026-05-06 10:38 39.85706 19.52393 16747 ft 350 kts 312°
2026-05-06 10:38 39.87408 19.50100 17313 ft 353 kts 313°
2026-05-06 10:38 39.89130 19.47795 17895 ft 356 kts 313°
2026-05-06 10:39 39.90867 19.45477 18470 ft 360 kts 313°
2026-05-06 10:39 39.92623 19.43130 18946 ft 363 kts 313°
2026-05-06 10:39 39.94392 19.40761 19465 ft 366 kts 313°
2026-05-06 10:39 39.96172 19.38367 19996 ft 369 kts 313°
2026-05-06 10:40 39.97958 19.35953 20546 ft 371 kts 312°
2026-05-06 10:40 39.99756 19.33518 21072 ft 374 kts 312°
2026-05-06 10:40 40.01566 19.31072 21586 ft 376 kts 312°
2026-05-06 10:40 40.03395 19.28608 22101 ft 379 kts 312°
2026-05-06 10:41 40.05234 19.26133 22609 ft 381 kts 312°
2026-05-06 10:41 40.07085 19.23640 23110 ft 384 kts 312°
2026-05-06 10:41 40.08950 19.21118 23598 ft 386 kts 312°
2026-05-06 10:41 40.10820 19.18580 24014 ft 389 kts 312°
2026-05-06 10:42 40.12698 19.16025 24413 ft 391 kts 312°
2026-05-06 10:42 40.14589 19.13455 24809 ft 393 kts 312°
2026-05-06 10:42 40.16492 19.10870 25183 ft 396 kts 311°
2026-05-06 10:42 40.18409 19.08267 25558 ft 398 kts 311°
2026-05-06 10:43 40.20333 19.05650 25939 ft 400 kts 311°
2026-05-06 10:43 40.22267 19.03011 26318 ft 402 kts 311°
2026-05-06 10:43 40.24225 19.00380 26687 ft 405 kts 315°
2026-05-06 10:44 40.28675 18.95759 27390 ft 411 kts 320°
2026-05-06 10:44 40.30948 18.93469 27741 ft 413 kts 320°
2026-05-06 10:44 40.33226 18.91173 28089 ft 415 kts 319°
2026-05-06 10:44 40.35521 18.88859 28437 ft 417 kts 319°
2026-05-06 10:45 40.37792 18.86565 28767 ft 419 kts 319°
2026-05-06 10:45 40.40107 18.84227 29093 ft 421 kts 319°
2026-05-06 10:45 40.42430 18.81879 29431 ft 423 kts 319°
2026-05-06 10:45 40.44766 18.79512 29761 ft 425 kts 320°
2026-05-06 10:46 40.47144 18.77098 30072 ft 428 kts 320°
2026-05-06 10:46 40.49515 18.74689 30286 ft 433 kts 320°
2026-05-06 10:46 40.51900 18.72259 30552 ft 435 kts 320°
2026-05-06 10:46 40.54290 18.69824 30930 ft 434 kts 320°
2026-05-06 10:47 40.56673 18.67396 31337 ft 433 kts 320°
2026-05-06 10:47 40.59049 18.64973 31742 ft 431 kts 319°
2026-05-06 10:47 40.61414 18.62557 32152 ft 430 kts 319°
2026-05-06 10:47 40.63776 18.60140 32567 ft 429 kts 319°
2026-05-06 10:48 40.66128 18.57734 32977 ft 428 kts 319°
2026-05-06 10:48 40.68476 18.55335 33393 ft 426 kts 319°
2026-05-06 10:48 40.70782 18.52979 33833 ft 424 kts 319°
2026-05-06 10:48 40.73108 18.50602 34245 ft 422 kts 319°
2026-05-06 10:49 40.75426 18.48230 34583 ft 421 kts 319°
2026-05-06 10:49 40.77741 18.45855 34893 ft 421 kts 319°
2026-05-06 10:49 40.80043 18.43484 35191 ft 420 kts 319°
2026-05-06 10:49 40.82346 18.41112 35456 ft 420 kts 318°
2026-05-06 10:50 40.84652 18.38733 35707 ft 420 kts 318°
2026-05-06 10:50 40.86955 18.36356 35967 ft 421 kts 318°
2026-05-06 10:50 40.89264 18.33974 36068 ft 423 kts 318°
2026-05-06 10:51 40.93962 18.29118 36092 ft 435 kts 318°
2026-05-06 10:51 40.98783 18.24125 36088 ft 445 kts 318°
2026-05-06 10:52 41.03689 18.19051 36089 ft 448 kts 319°
2026-05-06 10:52 41.08607 18.13949 36080 ft 449 kts 318°
2026-05-06 10:53 41.13520 18.08833 36080 ft 449 kts 318°
2026-05-06 10:53 41.18430 18.03710 36091 ft 449 kts 318°
2026-05-06 10:54 41.23336 17.98574 36088 ft 449 kts 318°
2026-05-06 10:54 41.28241 17.93435 36087 ft 449 kts 318°
2026-05-06 10:55 41.33149 17.88286 36081 ft 449 kts 318°
2026-05-06 10:55 41.38053 17.83121 36084 ft 450 kts 318°
2026-05-06 10:56 41.42961 17.77954 36087 ft 450 kts 318°
2026-05-06 10:56 41.47870 17.72789 36084 ft 450 kts 318°
2026-05-06 10:57 41.52781 17.67593 36081 ft 450 kts 318°
2026-05-06 10:57 41.57692 17.62384 36079 ft 451 kts 318°
2026-05-06 10:58 41.62604 17.57170 36072 ft 451 kts 318°
2026-05-06 10:58 41.67486 17.51980 36087 ft 451 kts 317°
2026-05-06 10:59 41.72395 17.46747 36079 ft 451 kts 317°
2026-05-06 10:59 41.77306 17.41505 36072 ft 451 kts 317°
2026-05-06 11:00 41.82214 17.36252 36074 ft 452 kts 317°
2026-05-06 11:00 41.87131 17.30980 36065 ft 453 kts 317°
2026-05-06 11:01 41.92040 17.25691 36077 ft 453 kts 317°
2026-05-06 11:01 41.97022 17.20488 36071 ft 454 kts 319°
2026-05-06 11:02 42.02133 17.15495 36064 ft 455 kts 320°
2026-05-06 11:02 42.07255 17.10502 36063 ft 455 kts 320°
2026-05-06 11:03 42.12337 17.05440 36062 ft 454 kts 319°
2026-05-06 11:03 42.17398 17.00341 36069 ft 454 kts 319°
2026-05-06 11:04 42.22462 16.95239 36062 ft 454 kts 319°
2026-05-06 11:04 42.27531 16.90147 36050 ft 454 kts 319°
2026-05-06 11:05 42.32598 16.85046 36048 ft 454 kts 319°
2026-05-06 11:05 42.37652 16.79931 36048 ft 454 kts 319°
2026-05-06 11:06 42.42702 16.74810 36051 ft 454 kts 319°
2026-05-06 11:06 42.47757 16.69694 36054 ft 454 kts 319°
2026-05-06 11:07 42.52814 16.64571 36046 ft 454 kts 319°
2026-05-06 11:07 42.57866 16.59422 36041 ft 454 kts 319°
2026-05-06 11:08 42.62917 16.54260 36056 ft 454 kts 319°
2026-05-06 11:08 42.67967 16.49089 36049 ft 455 kts 319°
2026-05-06 11:09 42.73021 16.43913 36041 ft 455 kts 319°
2026-05-06 11:09 42.78073 16.38734 36040 ft 455 kts 319°
2026-05-06 11:10 42.82266 16.34416 36046 ft 455 kts 319°
2026-05-06 11:10 42.87310 16.29209 36049 ft 455 kts 319°
2026-05-06 11:11 42.92363 16.23996 36041 ft 456 kts 319°
2026-05-06 11:11 42.97416 16.18763 36028 ft 456 kts 319°
2026-05-06 11:12 43.02475 16.13525 36028 ft 456 kts 319°
2026-05-06 11:12 43.07531 16.08276 36027 ft 456 kts 318°
2026-05-06 11:13 43.12568 16.03014 36033 ft 456 kts 318°
2026-05-06 11:13 43.17609 15.97745 36039 ft 456 kts 318°
2026-05-06 11:14 43.22616 15.92503 36032 ft 456 kts 318°
2026-05-06 11:14 43.27659 15.87224 36025 ft 456 kts 318°
2026-05-06 11:15 43.32695 15.81926 36042 ft 456 kts 318°
2026-05-06 11:15 43.37736 15.76618 36034 ft 456 kts 318°
2026-05-06 11:16 43.42772 15.71307 36027 ft 456 kts 317°
2026-05-06 11:16 43.47798 15.65978 36025 ft 456 kts 317°
2026-05-06 11:17 43.52830 15.60643 36029 ft 457 kts 317°
2026-05-06 11:17 43.57874 15.55288 35992 ft 458 kts 317°
2026-05-06 11:17 43.60397 15.52604 35476 ft 457 kts 317°
2026-05-06 11:18 43.62917 15.49924 34980 ft 457 kts 317°
2026-05-06 11:18 43.65434 15.47242 34492 ft 457 kts 317°
2026-05-06 11:18 43.67953 15.44554 34011 ft 458 kts 317°
2026-05-06 11:18 43.70475 15.41865 33469 ft 458 kts 317°
2026-05-06 11:19 43.73001 15.39171 32934 ft 460 kts 317°
2026-05-06 11:19 43.75533 15.36463 32410 ft 461 kts 317°
2026-05-06 11:19 43.78071 15.33739 31892 ft 462 kts 317°
2026-05-06 11:19 43.80620 15.31001 31384 ft 464 kts 317°
2026-05-06 11:20 43.83176 15.28254 30904 ft 465 kts 317°
2026-05-06 11:20 43.85738 15.25498 30414 ft 467 kts 317°
2026-05-06 11:20 43.88310 15.22727 29911 ft 469 kts 317°
2026-05-06 11:20 43.90884 15.19954 29346 ft 470 kts 317°
2026-05-06 11:21 43.93470 15.17166 28796 ft 472 kts 317°
2026-05-06 11:21 43.96042 15.14332 28256 ft 472 kts 316°
2026-05-06 11:21 43.98578 15.11423 27725 ft 473 kts 315°
2026-05-06 11:21 44.01093 15.08457 27213 ft 476 kts 315°
2026-05-06 11:22 44.03609 15.05448 26699 ft 478 kts 315°
2026-05-06 11:22 44.06130 15.02431 26203 ft 478 kts 315°
2026-05-06 11:22 44.08655 14.99429 25703 ft 476 kts 315°
2026-05-06 11:22 44.11176 14.96457 25235 ft 474 kts 315°
2026-05-06 11:23 44.13694 14.93505 24761 ft 472 kts 316°
2026-05-06 11:23 44.16200 14.90574 24293 ft 470 kts 316°
2026-05-06 11:23 44.18702 14.87648 23802 ft 468 kts 316°
2026-05-06 11:23 44.21184 14.84739 23229 ft 465 kts 316°
2026-05-06 11:24 44.23646 14.81844 22650 ft 461 kts 316°
2026-05-06 11:24 44.26081 14.78972 22073 ft 456 kts 316°
2026-05-06 11:24 44.28492 14.76124 21497 ft 452 kts 316°
2026-05-06 11:24 44.30879 14.73296 20937 ft 448 kts 316°
2026-05-06 11:25 44.33214 14.70524 20394 ft 444 kts 316°
2026-05-06 11:25 44.35559 14.67741 19861 ft 440 kts 316°
2026-05-06 11:25 44.37882 14.64982 19328 ft 436 kts 316°
2026-05-06 11:25 44.40186 14.62246 18810 ft 433 kts 316°
2026-05-06 11:26 44.42472 14.59526 18294 ft 429 kts 316°
2026-05-06 11:26 44.44738 14.56828 17712 ft 426 kts 316°
2026-05-06 11:26 44.46990 14.54142 17138 ft 423 kts 316°
2026-05-06 11:26 44.49218 14.51478 16571 ft 420 kts 316°
2026-05-06 11:27 44.51432 14.48828 16014 ft 417 kts 315°
2026-05-06 11:27 44.53637 14.46194 15464 ft 415 kts 316°
2026-05-06 11:27 44.55855 14.43630 14940 ft 413 kts 317°
2026-05-06 11:27 44.58090 14.41120 14410 ft 410 kts 317°
2026-05-06 11:28 44.60319 14.38645 13889 ft 407 kts 318°
2026-05-06 11:28 44.62535 14.36186 13318 ft 405 kts 317°
2026-05-06 11:28 44.64730 14.33734 12741 ft 402 kts 317°
2026-05-06 11:28 44.66907 14.31287 12176 ft 399 kts 317°
2026-05-06 11:29 44.69165 14.29012 11620 ft 402 kts 328°
2026-05-06 11:29 44.71816 14.27749 11080 ft 407 kts 348°
2026-05-06 11:29 44.74640 14.27873 10537 ft 410 kts 12°
2026-05-06 11:29 44.77207 14.29540 10003 ft 409 kts 37°
2026-05-06 11:30 44.79087 14.32468 9444 ft 402 kts 62°
2026-05-06 11:30 44.79964 14.36120 8862 ft 391 kts 86°
2026-05-06 11:30 44.80217 14.39832 8316 ft 372 kts 83°
2026-05-06 11:30 44.81154 14.43151 7777 ft 365 kts 56°
2026-05-06 11:31 44.82995 14.45535 7227 ft 357 kts 25°
2026-05-06 11:31 44.85332 14.46492 6621 ft 348 kts
2026-05-06 11:31 44.87634 14.45909 5980 ft 328 kts 330°
2026-05-06 11:31 44.89334 14.43989 5380 ft 305 kts 300°
2026-05-06 11:32 44.89916 14.42332 5001 ft 290 kts 279°
2026-05-06 11:32 44.90044 14.39594 4389 ft 275 kts 262°
2026-05-06 11:32 44.89980 14.36920 3974 ft 268 kts 262°
2026-05-06 11:32 44.89922 14.34375 3770 ft 253 kts 263°
2026-05-06 11:33 44.89937 14.31905 3641 ft 251 kts 264°
2026-05-06 11:33 44.89960 14.29442 3513 ft 251 kts 264°
2026-05-06 11:33 44.89969 14.27012 3387 ft 243 kts 263°
2026-05-06 11:33 44.89963 14.24676 3264 ft 234 kts 262°
2026-05-06 11:34 44.89943 14.22414 3151 ft 228 kts 262°
2026-05-06 11:34 44.89912 14.20169 3024 ft 228 kts 264°
2026-05-06 11:34 44.89873 14.17944 2908 ft 226 kts 259°
2026-05-06 11:34 44.89817 14.15710 2792 ft 233 kts 265°
2026-05-06 11:35 44.89784 14.13367 2755 ft 240 kts 266°
2026-05-06 11:35 44.89742 14.11061 2725 ft 230 kts 262°
2026-05-06 11:35 44.89700 14.08881 2484 ft 215 kts 263°
2026-05-06 11:35 44.89658 14.06845 2201 ft 201 kts 263°
2026-05-06 11:36 44.89618 14.04902 1944 ft 193 kts 262°
2026-05-06 11:36 44.89582 14.03069 1656 ft 181 kts 261°
2026-05-06 11:36 44.89550 14.01399 1413 ft 161 kts 261°
2026-05-06 11:36 44.89518 13.99860 1176 ft 150 kts 259°
2026-05-06 11:37 44.89488 13.98429 971 ft 145 kts 260°
2026-05-06 11:37 44.89459 13.97001 735 ft 148 kts 261°
2026-05-06 11:37 44.89432 13.95561 532 ft 148 kts 261°
2026-05-06 11:37 44.89398 13.94082 277 ft 149 kts 264°
2026-05-06 11:38 44.89356 13.92713 221 ft 118 kts 265°
2026-05-06 11:38 44.89346 13.91967 224 ft 44 kts 268°
2026-05-06 11:38 44.89338 13.91581 224 ft 38 kts 268°
2026-05-06 11:38 44.89331 13.91221 224 ft 36 kts 269°
2026-05-06 11:39 44.89328 13.90876 223 ft 34 kts 269°
2026-05-06 11:39 44.89321 13.90550 222 ft 27 kts 268°
2026-05-06 11:39 44.89321 13.90403 225 ft 9 kts 288°
2026-05-06 11:39 44.89362 13.90372 225 ft 6 kts 12°
2026-05-06 11:40 44.89412 13.90421 223 ft 13 kts 44°
2026-05-06 11:40 44.89542 13.90633 216 ft 27 kts 59°
2026-05-06 11:40 44.89548 13.90850 218 ft 22 kts 88°
2026-05-06 11:40 44.89550 13.91069 216 ft 22 kts 89°
2026-05-06 11:41 44.89563 13.91288 215 ft 23 kts 84°
2026-05-06 11:41 44.89563 13.91553 223 ft 28 kts 91°
2026-05-06 11:41 44.89566 13.91848 226 ft 32 kts 89°
2026-05-06 11:41 44.89571 13.92159 226 ft 31 kts 88°
2026-05-06 11:42 44.89581 13.92399 226 ft 15 kts 85°
2026-05-06 11:42 44.89626 13.92459 226 ft 8 kts 10°
2026-05-06 11:42 44.89688 13.92458 226 ft 9 kts 359°
2026-05-06 11:42 44.89696 13.92457 228 ft 0 kts 359°
2026-05-06 11:43 44.89713 13.92444 226 ft 4 kts 313°
2026-05-06 11:44 44.89746 13.92393 227 ft 4 kts 40°
2026-05-06 11:44 44.89753 13.92403 226 ft 1 kts 44°
2026-05-06 11:44 44.89753 13.92404 226 ft 0 kts 44°